Location: Ravensburg
(47.7866°N, 9.6124°E)
Time: 22:06:44
(UTC+02:00)

AO-85 - Pass Details

Date: 15 March 2026
Orbit: 507 x 686 km, 64.8° (Epoch: 11 April)

Event Time Altitude Azimuth Distance (km) Brightness Sun altitude
Exits shadow 03:29:43 13° 110° (ESE) 1,593 ? -30.3°
Drops below altitude 10° 03:31:29 10° 83° (E) 1,769 ? -30.1°
Sets 03:34:37 0° 56° (NE) 2,639 ? -29.6°
